When you browse on this site, cookies collect data to enhance your experience and personalize the content and advertising you see.
Visit our Privacy Policy to learn more. By continuing to use the site, you agree to this use of cookies and data.
  • In Romania
  • List of Countries
  • For 7 days
  • Water Temperature
  • Satellite Maps
  • Weather Map
  • Weather Widgets
  • user-avatar
    Login

    Hourly Weather Escaldes-Engordany

    Today, 18 June, Tuesday

    Time Temperature Precipitation Wind Pressure Humidity
    00:00 +12°C° 0 mm 1 mps 639 mmHg 74%
    01:00 +12°C° 0 mm 1 mps 638 mmHg 72%
    02:00 +12°C° 0 mm 1 mps 638 mmHg 71%
    03:00 +12°C° 0 mm 1 mps 638 mmHg 69%
    04:00 +14°C° 0 mm 1 mps 638 mmHg 66%
    05:00 +15°C° 0 mm 1 mps 639 mmHg 62%
    06:00 +16°C° 0 mm 1 mps 639 mmHg 59%
    07:00 +19°C° 0 mm 1 mps 640 mmHg 51%
    08:00 +20°C° 0 mm 2 mps 640 mmHg 43%
    09:00 +23°C° 0 mm 2 mps 641 mmHg 35%
    10:00 +24°C° 0 mm 3 mps 641 mmHg 34%
    11:00 +24°C° 0 mm 3 mps 641 mmHg 33%
    12:00 +25°C° 0 mm 4 mps 641 mmHg 32%
    13:00 +25°C° 0 mm 4 mps 641 mmHg 33%
    14:00 +25°C° 0 mm 4 mps 641 mmHg 33%
    15:00 +25°C° 0 mm 4 mps 640 mmHg 33%
    16:00 +23°C° 0 mm 4 mps 640 mmHg 38%
    17:00 +22°C° 0 mm 3 mps 639 mmHg 43%
    18:00 +20°C° 0 mm 2 mps 639 mmHg 48%
    19:00 +18°C° 0 mm 2 mps 638 mmHg 54%
    20:00 +16°C° 0 mm 1 mps 638 mmHg 60%
    21:00 +13°C° 0 mm 1 mps 637 mmHg 66%
    22:00 +13°C° 0 mm 1 mps 637 mmHg 65%
    23:00 +13°C° 0 mm 1 mps 637 mmHg 64%

    Tomorrow, 19 June, Wednesday

    Time Temperature Precipitation Wind Pressure Humidity
    00:00 +13°C° 0 mm 1 mps 637 mmHg 63%
    01:00 +13°C° 0 mm 1 mps 637 mmHg 60%
    02:00 +12°C° 0 mm 1 mps 637 mmHg 58%
    03:00 +12°C° 0 mm 1 mps 637 mmHg 55%
    04:00 +14°C° 0 mm 1 mps 637 mmHg 55%
    05:00 +15°C° 0 mm 1 mps 638 mmHg 56%
    06:00 +16°C° 0 mm 1 mps 639 mmHg 56%
    07:00 +19°C° 0 mm 1 mps 639 mmHg 47%
    08:00 +20°C° 0 mm 2 mps 640 mmHg 39%
    09:00 +21°C° 0 mm 3 mps 641 mmHg 30%
    10:00 +22°C° 0 mm 3 mps 641 mmHg 29%
    11:00 +24°C° 0 mm 3 mps 641 mmHg 28%
    12:00 +23°C° 0 mm 4 mps 641 mmHg 27%
    13:00 +23°C° 0 mm 4 mps 640 mmHg 28%
    14:00 +23°C° 0 mm 4 mps 640 mmHg 29%
    15:00 +23°C° 0 mm 4 mps 640 mmHg 30%
    16:00 +22°C° 0 mm 3 mps 639 mmHg 38%
    17:00 +21°C° 0 mm 2 mps 639 mmHg 46%
    18:00 +20°C° 0 mm 2 mps 638 mmHg 53%
    19:00 +19°C° 0 mm 1 mps 638 mmHg 58%
    20:00 +16°C° 0 mm 1 mps 637 mmHg 63%
    21:00 +14°C° 0 mm 1 mps 637 mmHg 68%
    22:00 +14°C° 0 mm 1 mps 637 mmHg 69%
    23:00 +13°C° 0 mm 1 mps 637 mmHg 70%

    Day after tomorrow, 20 June, Thursday

    Time Temperature Precipitation Wind Pressure Humidity
    00:00 +13°C° 0 mm 1 mps 637 mmHg 71%
    01:00 +13°C° 0 mm 1 mps 637 mmHg 71%
    02:00 +13°C° 0 mm 1 mps 637 mmHg 70%
    03:00 +11°C° 0 mm 0 mps 637 mmHg 69%
    04:00 +13°C° 0 mm 1 mps 637 mmHg 68%
    05:00 +14°C° 0 mm 1 mps 638 mmHg 67%
    06:00 +15°C° 0 mm 1 mps 638 mmHg 66%
    07:00 +18°C° 0 mm 1 mps 639 mmHg 61%
    08:00 +18°C° 0 mm 2 mps 640 mmHg 55%
    09:00 +20°C° 0 mm 2 mps 640 mmHg 49%
    10:00 +20°C° 0 mm 3 mps 641 mmHg 47%
    11:00 +21°C° 0 mm 4 mps 641 mmHg 45%
    12:00 +22°C° 0 mm 4 mps 641 mmHg 43%
    13:00 +21°C° 0.1 mm 4 mps 641 mmHg 47%
    14:00 +20°C° 0.1 mm 4 mps 640 mmHg 52%
    15:00 +20°C° 0.1 mm 4 mps 640 mmHg 56%
    16:00 +18°C° 0.5 mm 3 mps 640 mmHg 66%
    17:00 +17°C° 0.5 mm 2 mps 639 mmHg 75%
    18:00 +16°C° 0.5 mm 1 mps 639 mmHg 84%
    19:00 +15°C° 1 mm 1 mps 639 mmHg 88%
    20:00 +14°C° 1 mm 1 mps 639 mmHg 91%
    21:00 +13°C° 1 mm 1 mps 639 mmHg 95%
    22:00 +13°C° 0.2 mm 1 mps 639 mmHg 95%
    23:00 +12°C° 0.2 mm 1 mps 639 mmHg 95%

    21 June, Friday

    Time Temperature Precipitation Wind Pressure Humidity
    00:00 +12°C° 0.2 mm 1 mps 639 mmHg 94%
    01:00 +12°C° 0 mm 1 mps 639 mmHg 94%
    02:00 +11°C° 0 mm 0 mps 639 mmHg 93%
    03:00 +10°C° 0 mm 0 mps 639 mmHg 93%
    04:00 +11°C° 0 mm 0 mps 639 mmHg 92%
    05:00 +12°C° 0 mm 0 mps 639 mmHg 91%
    06:00 +12°C° 0 mm 0 mps 640 mmHg 90%
    07:00 +14°C° 0.4 mm 1 mps 640 mmHg 86%
    08:00 +16°C° 0.4 mm 1 mps 641 mmHg 81%
    09:00 +17°C° 0.4 mm 2 mps 641 mmHg 77%
    10:00 +17°C° 0.8 mm 2 mps 641 mmHg 75%
    11:00 +18°C° 0.8 mm 2 mps 641 mmHg 73%
    12:00 +19°C° 0.8 mm 2 mps 641 mmHg 71%
    13:00 +18°C° 1.3 mm 2 mps 641 mmHg 73%
    14:00 +18°C° 1.3 mm 2 mps 640 mmHg 76%
    15:00 +18°C° 1.3 mm 2 mps 640 mmHg 78%
    16:00 +18°C° 1 mm 1 mps 640 mmHg 81%
    17:00 +16°C° 1 mm 1 mps 640 mmHg 83%
    18:00 +16°C° 1 mm 1 mps 640 mmHg 86%
    19:00 +15°C° 1.2 mm 1 mps 640 mmHg 89%
    20:00 +13°C° 1.2 mm 0 mps 640 mmHg 92%
    21:00 +12°C° 1.2 mm 0 mps 640 mmHg 95%
    22:00 +12°C° 0.1 mm 0 mps 640 mmHg 94%
    23:00 +11°C° 0.1 mm 0 mps 639 mmHg 93%

    22 June, Saturday

    Time Temperature Precipitation Wind Pressure Humidity
    00:00 +11°C° 0.1 mm 0 mps 639 mmHg 91%
    01:00 +11°C° 0 mm 1 mps 639 mmHg 91%
    02:00 +11°C° 0 mm 1 mps 639 mmHg 91%
    03:00 +11°C° 0 mm 1 mps 638 mmHg 90%
    04:00 +12°C° 0 mm 1 mps 639 mmHg 89%
    05:00 +13°C° 0 mm 1 mps 639 mmHg 88%
    06:00 +14°C° 0 mm 1 mps 640 mmHg 87%
    07:00 +15°C° 0 mm 1 mps 640 mmHg 82%
    08:00 +18°C° 0 mm 1 mps 641 mmHg 76%
    09:00 +19°C° 0 mm 1 mps 641 mmHg 71%
    10:00 +19°C° 0.5 mm 2 mps 641 mmHg 68%
    11:00 +19°C° 0.5 mm 2 mps 641 mmHg 65%
    12:00 +20°C° 0.5 mm 2 mps 641 mmHg 62%
    13:00 +20°C° 0.5 mm 2 mps 641 mmHg 62%
    14:00 +20°C° 0.5 mm 2 mps 641 mmHg 63%
    15:00 +20°C° 0.5 mm 2 mps 640 mmHg 63%
    16:00 +21°C° 0.2 mm 1 mps 640 mmHg 67%
    17:00 +20°C° 0.2 mm 1 mps 640 mmHg 72%
    18:00 +20°C° 0.2 mm 1 mps 639 mmHg 76%
    19:00 +18°C° 0 mm 1 mps 639 mmHg 79%
    20:00 +16°C° 0 mm 1 mps 639 mmHg 82%
    21:00 +14°C° 0 mm 1 mps 639 mmHg 85%
    22:00 +14°C° 0 mm 1 mps 638 mmHg 84%
    23:00 +14°C° 0 mm 1 mps 638 mmHg 84%

    23 June, Sunday

    Time Temperature Precipitation Wind Pressure Humidity
    00:00 +14°C° 0 mm 1 mps 638 mmHg 83%
    01:00 +14°C° 0 mm 1 mps 638 mmHg 83%
    02:00 +14°C° 0 mm 1 mps 638 mmHg 82%
    03:00 +13°C° 0 mm 1 mps 637 mmHg 81%
    04:00 +14°C° 0 mm 1 mps 638 mmHg 77%
    05:00 +15°C° 0 mm 1 mps 638 mmHg 73%
    06:00 +16°C° 0 mm 1 mps 638 mmHg 69%
    07:00 +18°C° 0 mm 2 mps 639 mmHg 60%
    08:00 +20°C° 0 mm 2 mps 640 mmHg 50%
    09:00 +23°C° 0 mm 2 mps 640 mmHg 41%
    10:00 +24°C° 0 mm 3 mps 641 mmHg 39%
    11:00 +25°C° 0 mm 3 mps 641 mmHg 37%
    12:00 +26°C° 0 mm 3 mps 641 mmHg 35%
    13:00 +26°C° 0 mm 3 mps 641 mmHg 36%
    14:00 +26°C° 0 mm 3 mps 641 mmHg 37%
    15:00 +26°C° 0 mm 3 mps 641 mmHg 37%
    16:00 +25°C° 0 mm 3 mps 640 mmHg 44%
    17:00 +24°C° 0 mm 3 mps 640 mmHg 50%
    18:00 +21°C° 0 mm 2 mps 639 mmHg 56%
    19:00 +19°C° 0 mm 2 mps 639 mmHg 60%
    20:00 +17°C° 0 mm 2 mps 639 mmHg 64%
    21:00 +15°C° 0 mm 2 mps 638 mmHg 68%
    22:00 +15°C° 0 mm 2 mps 638 mmHg 66%
    23:00 +15°C° 0 mm 2 mps 638 mmHg 64%
    Show more